Decatur, IL

12:43 PM CDT on July 28, 2016 (GMT -0500)
Decatur

Weather History for KDEC - February, 2014

Change the Weather History Date:

Friday, February 21, 2014

  Actual Average Record
Temperature  
Mean Temperature 40 °F 33 °F  
Max Temperature 47 °F 41 °F 55 °F (2016)
Min Temperature 33 °F 25 °F 20 °F (2015)
Degree Days  
Heating Degree Days 25 32  
Month to date heating degree days 958 734  
Since 1 July heating degree days 4519 4041  
Cooling Degree Days 0 0  
Month to date cooling degree days 0 0  
Year to date cooling degree days 0 0  
Moisture  
Dew Point 24 °F    
Average Humidity 56    
Maximum Humidity 75    
Minimum Humidity 37    
Precipitation  
Precipitation T in 0.08 in 0.01 in (2015)
Month to date precipitation 0.20 1.45  
Year to date precipitation 0.91 3.19  
Sea Level Pressure  
Sea Level Pressure 29.79 in    
Wind  
Wind Speed 16 mph (WSW)    
Max Wind Speed 30 mph    
Max Gust Speed 41 mph    
Visibility 10 miles    
Events      
T = Trace of Precipitation, MM = Missing Value Source: NWS Daily Summary

Daily Weather History Graph

Daily Weather History Graph

Search for Another Location

Airport or City:

Trip Planner

Search our weather history database for the weather conditions in past years. The results will help you decide how hot, cold, wet, or windy it might be!

Date:

Astronomy

Feb. 21, 2014 Rise Set
Actual Time 6:40 AM CST 5:38 PM CST
Civil Twilight 6:12 AM CST 6:05 PM CST
Nautical Twilight 5:41 AM CST 6:37 PM CST
Astronomical Twilight 5:10 AM CST 7:08 PM CST
Moon No Moon Rise 10:04 AM CST (2/21)
Length of Visible Light 11h 53m
Length of Day
10h 58m
Waning Gibbous, 60% of the Moon is Illuminated
Feb 21
Waning Gibbous
Feb 22
Last Quarter
Mar 1
New
Mar 8
First Quarter
Mar 16
Full

Hourly Weather History & Observations

Time (CST) Temp. Windchill Dew Point Humidity Pressure Visibility Wind Dir Wind Speed Gust Speed Precip Events Conditions
12:54 AM 36.0 °F 25.6 °F 28.9 °F 76% 29.62 in 10.0 mi SW 18.4 mph 23.0 mph N/A   Clear
1:54 AM 36.0 °F 26.0 °F 28.9 °F 76% 29.64 in 10.0 mi SW 17.3 mph - N/A   Mostly Cloudy
2:54 AM 37.0 °F 27.4 °F 28.0 °F 70% 29.65 in 10.0 mi WSW 17.3 mph 26.5 mph N/A   Overcast
3:54 AM 36.0 °F 26.7 °F 28.0 °F 73% 29.66 in 10.0 mi WSW 15.0 mph 23.0 mph N/A   Overcast
4:54 AM 35.1 °F 25.9 °F 27.0 °F 72% 29.69 in 10.0 mi WSW 13.8 mph 23.0 mph N/A   Overcast
5:13 AM 35.6 °F 25.2 °F 26.6 °F 70% 29.70 in 10.0 mi WSW 18.4 mph 25.3 mph N/A   Overcast
5:54 AM 34.0 °F 22.7 °F 24.1 °F 67% 29.73 in 10.0 mi WSW 19.6 mph 31.1 mph 0.00 in   Overcast
6:06 AM 33.8 °F 23.2 °F 24.8 °F 70% 29.72 in 10.0 mi West 17.3 mph 33.4 mph N/A   Overcast
6:54 AM 33.1 °F 20.9 °F 21.9 °F 64% 29.75 in 10.0 mi West 21.9 mph 32.2 mph N/A   Overcast
7:54 AM 34.0 °F 22.7 °F 23.0 °F 64% 29.78 in 10.0 mi West 19.6 mph 31.1 mph N/A   Scattered Clouds
8:54 AM 34.0 °F 22.7 °F 19.9 °F 56% 29.81 in 10.0 mi West 19.6 mph 35.7 mph N/A   Partly Cloudy
9:54 AM 35.1 °F 23.0 °F 19.9 °F 54% 29.83 in 10.0 mi West 24.2 mph 32.2 mph N/A   Clear
10:54 AM 37.0 °F 26.4 °F 19.9 °F 50% 29.86 in 10.0 mi WSW 20.7 mph 31.1 mph N/A   Clear
11:54 AM 39.0 °F 29.3 °F 19.0 °F 45% 29.86 in 10.0 mi WSW 19.6 mph 28.8 mph N/A   Clear
12:54 PM 42.1 °F 34.2 °F 19.9 °F 41% 29.85 in 10.0 mi WSW 16.1 mph 31.1 mph N/A   Clear
1:54 PM 44.1 °F 35.9 °F 19.9 °F 38% 29.86 in 10.0 mi WSW 19.6 mph 31.1 mph N/A   Clear
2:54 PM 46.0 °F 39.3 °F 21.0 °F 37% 29.86 in 10.0 mi WSW 16.1 mph 29.9 mph N/A   Clear
3:54 PM 46.0 °F 39.0 °F 23.0 °F 40% 29.86 in 10.0 mi WSW 17.3 mph - N/A   Clear
4:54 PM 45.0 °F 39.3 °F 26.1 °F 48% 29.86 in 10.0 mi SSW 11.5 mph - N/A   Clear
5:54 PM 41.0 °F 36.4 °F 28.0 °F 60% 29.86 in 10.0 mi SSW 6.9 mph - N/A   Mostly Cloudy
6:54 PM 39.9 °F 35.1 °F 27.0 °F 60% 29.86 in 10.0 mi South 6.9 mph - N/A   Overcast
7:54 PM 42.1 °F 36.6 °F 25.0 °F 51% 29.84 in 10.0 mi South 9.2 mph - N/A   Overcast
8:54 PM 43.0 °F 38.8 °F 25.0 °F 49% 29.86 in 10.0 mi SW 6.9 mph - N/A   Overcast
9:54 PM 46.0 °F 40.2 °F 26.1 °F 46% 29.87 in 10.0 mi WSW 12.7 mph 23.0 mph N/A   Overcast
10:54 PM 45.0 °F 38.2 °F 27.0 °F 49% 29.88 in 10.0 mi WSW 15.0 mph 20.7 mph 0.00 in   Mostly Cloudy
11:54 PM 43.0 °F 37.2 °F 24.1 °F 47% 29.90 in 10.0 mi WSW 10.4 mph - N/A   Clear